AFL1731 UHPP-UUEE

Flight info

Callsign AFL1731
Flight time N/A
Altitude 32000
Route BAKEN4M BAKEN A812 SALAK/K0893F340 A812 OLEGA T411 LABAR M131 AMEGO P65 ROMTA ROMTA3F
Aircraft B77W/H-SDE1E2E3FGHIJ2J3J4J5M1RWXY/LB1D1

Departure

Time 2026-04-10 10:24
Airport Yelizovo Airport (UHPP)

Arrival

Time N/A
Airport Sheremetyevo International Airport (UUEE)
Time Latitude Longitude Altitude Speed Heading
2026-04-10 10:01 53.18268 158.43371 128 ft 0 kts 214°
2026-04-10 10:14 53.18272 158.43375 122 ft 2 kts 214°
2026-04-10 10:14 53.18285 158.43390 128 ft 2 kts 214°
2026-04-10 10:15 53.18299 158.43406 123 ft 2 kts 214°
2026-04-10 10:15 53.18312 158.43421 128 ft 2 kts 208°
2026-04-10 10:15 53.18328 158.43425 128 ft 2 kts 146°
2026-04-10 10:15 53.18340 158.43407 126 ft 2 kts 127°
2026-04-10 10:16 53.18348 158.43384 128 ft 2 kts 113°
2026-04-10 10:16 53.18349 158.43384 128 ft 0 kts 113°
2026-04-10 10:19 53.18348 158.43384 128 ft 1 kts 113°
2026-04-10 10:19 53.18346 158.43395 128 ft 3 kts 113°
2026-04-10 10:19 53.18330 158.43450 128 ft 6 kts 121°
2026-04-10 10:19 53.18298 158.43512 128 ft 8 kts 135°
2026-04-10 10:20 53.18254 158.43568 128 ft 6 kts 134°
2026-04-10 10:20 53.18248 158.43651 128 ft 9 kts 81°
2026-04-10 10:20 53.18271 158.43771 127 ft 11 kts 67°
2026-04-10 10:20 53.18295 158.43863 128 ft 6 kts 68°
2026-04-10 10:21 53.18315 158.43952 128 ft 7 kts 70°
2026-04-10 10:21 53.18325 158.44030 130 ft 7 kts 90°
2026-04-10 10:21 53.18301 158.44100 131 ft 8 kts 136°
2026-04-10 10:21 53.18262 158.44142 132 ft 0 kts 153°
2026-04-10 10:23 53.18255 158.44149 131 ft 9 kts 153°
2026-04-10 10:23 53.18036 158.44310 130 ft 72 kts 157°
2026-04-10 10:23 53.17605 158.44605 133 ft 126 kts 158°
2026-04-10 10:23 53.16149 158.45630 201 ft 204 kts 157°
2026-04-10 10:24 53.14785 158.46547 690 ft 216 kts 158°
2026-04-10 10:24 53.13841 158.47198 1076 ft 224 kts 157°
2026-04-10 10:24 53.12344 158.48243 1424 ft 239 kts 157°
2026-04-10 10:24 53.10248 158.49702 2057 ft 254 kts 157°
2026-04-10 10:25 53.08583 158.50852 2533 ft 266 kts 158°
2026-04-10 10:25 53.06853 158.52044 3170 ft 270 kts 160°
2026-04-10 10:25 53.05707 158.52837 3703 ft 269 kts 161°
2026-04-10 10:25 53.03986 158.54025 4508 ft 268 kts 162°
2026-04-10 10:26 53.02234 158.55213 5062 ft 275 kts 162°
2026-04-10 10:26 53.00442 158.56437 5632 ft 279 kts 163°
2026-04-10 10:26 52.98570 158.56994 6075 ft 272 kts 194°
2026-04-10 10:26 52.96872 158.55872 6655 ft 259 kts 223°
2026-04-10 10:27 52.95695 158.53683 7235 ft 254 kts 245°
2026-04-10 10:27 52.95129 158.50950 7810 ft 251 kts 266°
2026-04-10 10:27 52.95255 158.48085 8409 ft 251 kts 288°
2026-04-10 10:27 52.96073 158.45523 9023 ft 255 kts 307°
2026-04-10 10:28 52.97437 158.43604 9576 ft 262 kts 331°
2026-04-10 10:28 52.99142 158.42442 10108 ft 268 kts 334°
2026-04-10 10:28 53.00894 158.41324 10602 ft 272 kts 335°
2026-04-10 10:28 53.02677 158.40215 11182 ft 275 kts 335°
2026-04-10 10:29 53.04477 158.39101 11781 ft 277 kts 335°
2026-04-10 10:29 53.06293 158.37965 12370 ft 280 kts 335°
2026-04-10 10:29 53.08116 158.36820 12889 ft 282 kts 335°
2026-04-10 10:29 53.09964 158.35653 13399 ft 286 kts 335°
2026-04-10 10:30 53.11832 158.34466 13935 ft 288 kts 334°
2026-04-10 10:30 53.13709 158.33270 14467 ft 290 kts 334°
2026-04-10 10:30 53.15598 158.32070 14979 ft 293 kts 333°
2026-04-10 10:30 53.17504 158.30805 15463 ft 296 kts 334°
2026-04-10 10:31 53.19439 158.29562 15994 ft 299 kts 334°
2026-04-10 10:31 53.21384 158.28324 16518 ft 301 kts 334°
2026-04-10 10:31 53.23348 158.27067 17042 ft 304 kts 334°
2026-04-10 10:31 53.25336 158.25793 17571 ft 306 kts 334°
2026-04-10 10:32 53.27302 158.24527 18058 ft 308 kts 334°
2026-04-10 10:32 53.29344 158.23209 18545 ft 312 kts 334°
2026-04-10 10:32 53.31350 158.21917 19026 ft 314 kts 334°
2026-04-10 10:32 53.33423 158.20575 19515 ft 317 kts 334°
2026-04-10 10:33 53.35460 158.19254 19948 ft 320 kts 334°
2026-04-10 10:33 53.37564 158.17890 20198 ft 331 kts 334°
2026-04-10 10:33 53.39780 158.16440 20239 ft 349 kts 334°
2026-04-10 10:33 53.42086 158.14936 20358 ft 363 kts 334°
2026-04-10 10:34 53.44490 158.13367 20480 ft 378 kts 334°
2026-04-10 10:34 53.46993 158.11734 20592 ft 393 kts 335°
2026-04-10 10:34 53.49587 158.10043 20738 ft 406 kts 335°
2026-04-10 10:34 53.52253 158.08306 20999 ft 415 kts 335°
2026-04-10 10:35 53.54965 158.06537 21400 ft 421 kts 335°
2026-04-10 10:35 53.57705 158.04742 21913 ft 423 kts 335°
2026-04-10 10:35 53.60458 158.02943 22419 ft 425 kts 335°
2026-04-10 10:35 53.63226 158.01127 22879 ft 428 kts 335°
2026-04-10 10:36 53.66008 157.99289 23289 ft 432 kts 334°
2026-04-10 10:36 53.68718 157.97071 23648 ft 433 kts 327°
2026-04-10 10:36 53.71312 157.94470 24067 ft 435 kts 325°
2026-04-10 10:36 53.73899 157.91789 24505 ft 438 kts 326°
2026-04-10 10:37 53.76501 157.89205 24936 ft 440 kts 327°
2026-04-10 10:37 53.79207 157.86591 25337 ft 444 kts 327°
2026-04-10 10:37 53.81894 157.83996 25691 ft 447 kts 326°
2026-04-10 10:37 53.84599 157.81365 26058 ft 450 kts 326°
2026-04-10 10:38 53.87281 157.78744 26405 ft 452 kts 326°
2026-04-10 10:38 53.90013 157.76072 26756 ft 454 kts 326°
2026-04-10 10:38 53.92755 157.73376 27099 ft 457 kts 326°
2026-04-10 10:38 53.95506 157.70671 27423 ft 459 kts 326°
2026-04-10 10:39 53.98284 157.67947 27743 ft 461 kts 326°
2026-04-10 10:39 54.01066 157.65214 28030 ft 464 kts 326°
2026-04-10 10:39 54.03864 157.62456 28306 ft 467 kts 326°
2026-04-10 10:39 54.06680 157.59677 28574 ft 469 kts 326°
2026-04-10 10:40 54.09503 157.56886 28845 ft 471 kts 326°
2026-04-10 10:40 54.12320 157.54096 29153 ft 470 kts 326°
2026-04-10 10:40 54.15170 157.51287 29506 ft 470 kts 326°
2026-04-10 10:40 54.17991 157.48505 29886 ft 468 kts 326°
2026-04-10 10:41 54.20816 157.45715 30243 ft 467 kts 325°
2026-04-10 10:41 54.23629 157.42928 30542 ft 467 kts 325°
2026-04-10 10:41 54.26439 157.40137 30835 ft 467 kts 325°
2026-04-10 10:41 54.29250 157.37341 31128 ft 467 kts 325°
2026-04-10 10:42 54.32061 157.34545 31406 ft 467 kts 325°
2026-04-10 10:42 54.34865 157.31747 31652 ft 468 kts 325°
2026-04-10 10:42 54.37683 157.28920 31687 ft 470 kts 324°
2026-04-10 10:43 54.43321 157.23240 31734 ft 468 kts 325°
2026-04-10 10:43 54.48882 157.17682 31735 ft 464 kts 325°
2026-04-10 10:44 54.54436 157.12094 31740 ft 462 kts 325°
2026-04-10 10:44 54.59989 157.06473 31744 ft 463 kts 325°
2026-04-10 10:45 54.65573 157.00810 31740 ft 466 kts 325°
2026-04-10 10:45 54.71172 156.95140 31744 ft 467 kts 325°
2026-04-10 10:46 54.76775 156.89431 31742 ft 467 kts 325°
2026-04-10 10:46 54.82381 156.83719 31737 ft 467 kts 325°
2026-04-10 10:47 54.87980 156.77978 31742 ft 468 kts 325°
2026-04-10 10:47 54.93569 156.72190 31746 ft 468 kts 324°
2026-04-10 10:48 54.99184 156.66381 31736 ft 469 kts 324°
2026-04-10 10:48 55.04790 156.60561 31741 ft 469 kts 325°
2026-04-10 10:49 55.10358 156.54783 31742 ft 469 kts 325°
2026-04-10 10:49 55.15966 156.48936 31737 ft 470 kts 325°
2026-04-10 10:50 55.21570 156.43074 31724 ft 468 kts 325°
2026-04-10 10:50 55.27156 156.37219 31728 ft 468 kts 325°
2026-04-10 10:51 55.32740 156.31351 31731 ft 468 kts 325°
2026-04-10 10:51 55.38322 156.25447 31733 ft 469 kts 325°
2026-04-10 10:52 55.43910 156.19499 31728 ft 470 kts 324°
2026-04-10 10:52 55.49507 156.13496 31733 ft 472 kts 325°
2026-04-10 10:53 55.55121 156.07473 31732 ft 472 kts 325°
2026-04-10 10:53 55.60744 156.01437 31729 ft 473 kts 325°
2026-04-10 10:54 55.66332 155.95416 31726 ft 473 kts 325°
2026-04-10 10:54 55.71951 155.89333 31730 ft 472 kts 324°
2026-04-10 10:55 55.77558 155.83241 31720 ft 472 kts 325°
2026-04-10 10:55 55.83165 155.77142 31727 ft 473 kts 325°
2026-04-10 10:56 55.88771 155.71013 31720 ft 473 kts 325°
2026-04-10 10:56 55.94377 155.64861 31724 ft 472 kts 324°
2026-04-10 10:57 55.99970 155.58696 31723 ft 472 kts 324°
2026-04-10 10:57 56.05548 155.52534 31720 ft 472 kts 324°
2026-04-10 10:58 56.11139 155.46341 31712 ft 472 kts 324°
2026-04-10 10:58 56.16725 155.40130 31722 ft 472 kts 324°
2026-04-10 10:59 56.22311 155.33946 31714 ft 472 kts 325°
2026-04-10 10:59 56.27931 155.27816 31711 ft 471 kts 325°
2026-04-10 11:00 56.33522 155.21692 31710 ft 470 kts 325°
2026-04-10 11:00 56.39092 155.15555 31714 ft 468 kts 325°
2026-04-10 11:01 56.44611 155.09432 31712 ft 468 kts 325°
2026-04-10 11:01 56.50148 155.03281 31712 ft 467 kts 325°
2026-04-10 11:02 56.55671 154.97126 31714 ft 466 kts 324°
2026-04-10 11:02 56.61193 154.90947 31705 ft 466 kts 325°
2026-04-10 11:03 56.66701 154.84766 31705 ft 465 kts 324°
2026-04-10 11:03 56.72200 154.78569 31702 ft 465 kts 324°
2026-04-10 11:04 56.77695 154.72355 31704 ft 465 kts 324°
2026-04-10 11:04 56.83149 154.66168 31702 ft 465 kts 324°
2026-04-10 11:05 56.91377 154.56793 31703 ft 465 kts 324°
2026-04-10 11:05 56.96858 154.50524 31703 ft 465 kts 324°
2026-04-10 11:06 57.02336 154.44250 31698 ft 463 kts 324°
2026-04-10 11:06 57.07802 154.37933 31691 ft 464 kts 324°
2026-04-10 11:07 57.13263 154.31609 31696 ft 464 kts 324°
2026-04-10 11:07 57.18726 154.25274 31695 ft 464 kts 324°
2026-04-10 11:08 57.24160 154.18895 31692 ft 463 kts 324°
2026-04-10 11:08 57.29530 154.12492 31694 ft 461 kts 324°
2026-04-10 11:09 57.34954 154.06005 31695 ft 461 kts 324°
2026-04-10 11:09 57.40295 153.99605 31686 ft 459 kts 324°
2026-04-10 11:10 57.45658 153.93144 31688 ft 459 kts 324°
2026-04-10 11:10 57.51019 153.86689 31683 ft 459 kts 324°
2026-04-10 11:11 57.56371 153.80224 31684 ft 458 kts 324°
2026-04-10 11:11 57.61708 153.73741 31692 ft 458 kts 324°
2026-04-10 11:12 57.67046 153.67223 31685 ft 459 kts 323°
2026-04-10 11:12 57.71485 153.61792 31682 ft 458 kts 323°
2026-04-10 11:13 57.76817 153.55254 31683 ft 458 kts 323°
2026-04-10 11:13 57.82141 153.48700 31685 ft 458 kts 323°
2026-04-10 11:14 57.87481 153.42134 31686 ft 459 kts 323°
2026-04-10 11:14 57.92838 153.35525 31683 ft 461 kts 323°
2026-04-10 11:15 57.98191 153.28894 31680 ft 461 kts 323°
2026-04-10 11:15 58.03544 153.22235 31680 ft 461 kts 323°
2026-04-10 11:16 58.08894 153.15557 31676 ft 461 kts 323°
2026-04-10 11:16 58.14239 153.08864 31667 ft 460 kts 323°
2026-04-10 11:17 58.19578 153.02124 31681 ft 460 kts 322°
2026-04-10 11:17 58.24768 152.95165 31679 ft 460 kts 321°
2026-04-10 11:18 58.30009 152.88095 31699 ft 459 kts 322°
2026-04-10 11:18 58.35205 152.81161 31701 ft 459 kts 322°
2026-04-10 11:19 58.40438 152.74158 31703 ft 460 kts 322°
2026-04-10 11:19 58.45660 152.67128 31702 ft 458 kts 322°
2026-04-10 11:20 58.50860 152.60085 31705 ft 458 kts 322°
2026-04-10 11:20 58.56074 152.53006 31699 ft 460 kts 322°
2026-04-10 11:21 58.61347 152.46044 31688 ft 461 kts 323°
2026-04-10 11:21 58.66707 152.39255 31693 ft 461 kts 323°
2026-04-10 11:22 58.72049 152.32403 31694 ft 461 kts 323°
2026-04-10 11:22 58.77365 152.25513 31694 ft 461 kts 323°
2026-04-10 11:23 58.82646 152.18629 31691 ft 460 kts 323°
2026-04-10 11:23 58.87948 152.11689 31697 ft 460 kts 323°
2026-04-10 11:24 58.93247 152.04737 31695 ft 461 kts 323°
2026-04-10 11:24 58.98557 151.97740 31694 ft 462 kts 323°
2026-04-10 11:25 59.03864 151.90723 31693 ft 462 kts 323°
2026-04-10 11:25 59.09172 151.83678 31693 ft 462 kts 323°
2026-04-10 11:26 59.14481 151.76652 31694 ft 461 kts 323°
2026-04-10 11:26 59.19787 151.69627 31693 ft 460 kts 323°
2026-04-10 11:27 59.25076 151.62592 31693 ft 460 kts 323°
2026-04-10 11:27 59.30359 151.55533 31694 ft 460 kts 323°
2026-04-10 11:28 59.35654 151.48466 31696 ft 459 kts 323°
2026-04-10 11:28 59.40942 151.41420 31691 ft 460 kts 323°
2026-04-10 11:29 59.46229 151.34338 31694 ft 460 kts 322°
2026-04-10 11:29 59.51482 151.27263 31688 ft 461 kts 323°
2026-04-10 11:30 59.53266 151.24862 31692 ft 461 kts 323°
2026-04-10 11:30 59.55544 151.21792 31697 ft 461 kts 323°
2026-04-10 11:31 59.60836 151.14626 31697 ft 461 kts 322°
2026-04-10 11:31 59.66094 151.07384 31687 ft 461 kts 322°
2026-04-10 11:32 59.71315 151.00006 31694 ft 462 kts 321°
2026-04-10 11:32 59.76538 150.92598 31692 ft 461 kts 321°
2026-04-10 11:33 59.81758 150.85190 31693 ft 461 kts 321°
2026-04-10 11:33 59.86975 150.77762 31691 ft 460 kts 321°
2026-04-10 11:34 59.92148 150.70385 31696 ft 459 kts 322°
2026-04-10 11:34 59.97417 150.63229 31695 ft 458 kts 323°
2026-04-10 11:35 60.02716 150.56091 31689 ft 460 kts 323°
2026-04-10 11:35 60.08005 150.48856 31699 ft 462 kts 323°
2026-04-10 11:36 60.13329 150.41553 31699 ft 464 kts 323°
2026-04-10 11:36 60.18658 150.34215 31698 ft 465 kts 323°
2026-04-10 11:37 60.23992 150.26866 31689 ft 464 kts 323°
2026-04-10 11:37 60.29312 150.19513 31692 ft 463 kts 322°
2026-04-10 11:38 60.34608 150.12158 31694 ft 462 kts 322°
2026-04-10 11:38 60.39907 150.04763 31692 ft 463 kts 322°
2026-04-10 11:39 60.45200 149.97372 31697 ft 462 kts 322°
2026-04-10 11:39 60.50482 149.89939 31691 ft 461 kts 322°
2026-04-10 11:40 60.55700 149.82559 31691 ft 460 kts 322°
2026-04-10 11:40 60.60934 149.75114 31690 ft 459 kts 322°
2026-04-10 11:41 60.66177 149.67654 31696 ft 460 kts 322°
2026-04-10 11:41 60.71426 149.60143 31695 ft 461 kts 322°
2026-04-10 11:42 60.76678 149.52594 31695 ft 461 kts 322°
2026-04-10 11:42 60.81937 149.45090 31694 ft 460 kts 322°
2026-04-10 11:43 60.87125 149.37536 31693 ft 462 kts 322°
2026-04-10 11:43 60.92367 149.29878 31698 ft 463 kts 322°
2026-04-10 11:44 60.97618 149.22210 31692 ft 463 kts 322°
2026-04-10 11:44 61.02876 149.14508 31699 ft 464 kts 322°
2026-04-10 11:45 61.08112 149.06787 31690 ft 463 kts 322°
2026-04-10 11:45 61.13356 148.99043 31696 ft 463 kts 322°
2026-04-10 11:46 61.18594 148.91286 31693 ft 461 kts 322°
2026-04-10 11:46 61.23766 148.83579 31698 ft 460 kts 321°
2026-04-10 11:47 61.28968 148.75801 31693 ft 461 kts 321°
2026-04-10 11:47 61.34169 148.67992 31694 ft 460 kts 321°
2026-04-10 11:48 61.39366 148.60165 31695 ft 460 kts 321°
2026-04-10 11:48 61.44541 148.52329 31690 ft 460 kts 321°
2026-04-10 11:49 61.49739 148.44439 31698 ft 461 kts 321°
2026-04-10 11:49 61.54928 148.36495 31695 ft 463 kts 321°
2026-04-10 11:50 61.60073 148.28568 31696 ft 462 kts 321°
2026-04-10 11:50 61.65258 148.20552 31694 ft 462 kts 321°
2026-04-10 11:51 61.70438 148.12507 31693 ft 463 kts 321°
2026-04-10 11:51 61.75610 148.04437 31692 ft 462 kts 321°
2026-04-10 11:52 61.80776 147.96345 31700 ft 462 kts 321°
2026-04-10 11:52 61.85931 147.88237 31692 ft 461 kts 321°
2026-04-10 11:53 61.91076 147.80114 31703 ft 461 kts 321°
2026-04-10 11:53 61.96209 147.71966 31705 ft 461 kts 321°
2026-04-10 11:54 62.01307 147.63836 31702 ft 461 kts 321°
2026-04-10 11:54 62.06436 147.55620 31702 ft 462 kts 320°
2026-04-10 11:55 62.11571 147.47357 31704 ft 462 kts 321°
2026-04-10 11:55 62.16705 147.39060 31705 ft 463 kts 320°
2026-04-10 11:56 62.21843 147.30741 31702 ft 463 kts 320°
2026-04-10 11:56 62.26976 147.22399 31704 ft 462 kts 320°
2026-04-10 11:57 62.32095 147.14035 31701 ft 462 kts 320°
2026-04-10 11:57 62.37206 147.05623 31706 ft 463 kts 320°
2026-04-10 11:58 62.42319 146.97177 31701 ft 463 kts 320°
2026-04-10 11:58 62.47434 146.88692 31705 ft 462 kts 320°
2026-04-10 11:59 62.52498 146.80267 31698 ft 462 kts 320°
2026-04-10 11:59 62.57585 146.71762 31704 ft 462 kts 320°
2026-04-10 12:00 62.62678 146.63207 31704 ft 463 kts 320°
2026-04-10 12:00 62.67767 146.54640 31708 ft 463 kts 320°
2026-04-10 12:01 62.72872 146.46027 31697 ft 463 kts 320°
2026-04-10 12:01 62.77956 146.37403 31704 ft 464 kts 320°
2026-04-10 12:02 62.83051 146.28735 31707 ft 464 kts 320°
2026-04-10 12:02 62.88139 146.20036 31714 ft 464 kts 320°
2026-04-10 12:03 62.92364 146.12771 31706 ft 464 kts 320°
2026-04-10 12:03 62.97441 146.04031 31719 ft 464 kts 320°
2026-04-10 12:04 63.02525 145.95229 31713 ft 465 kts 320°
2026-04-10 12:04 63.07587 145.86421 31712 ft 465 kts 320°
2026-04-10 12:05 63.12680 145.77548 31712 ft 465 kts 320°
2026-04-10 12:05 63.17746 145.68647 31712 ft 465 kts 320°
2026-04-10 12:06 63.22814 145.59713 31713 ft 466 kts 319°
2026-04-10 12:06 63.27881 145.50747 31715 ft 466 kts 319°
2026-04-10 12:07 63.35433 145.37277 31711 ft 465 kts 319°
2026-04-10 12:08 63.40466 145.28201 31725 ft 465 kts 319°
2026-04-10 12:08 63.45494 145.19094 31723 ft 465 kts 319°
2026-04-10 12:09 63.50520 145.09957 31720 ft 465 kts 319°
2026-04-10 12:09 63.55529 145.00809 31719 ft 464 kts 319°
2026-04-10 12:10 63.60524 144.91641 31721 ft 464 kts 318°
2026-04-10 12:10 63.65510 144.82431 31721 ft 464 kts 318°
2026-04-10 12:11 63.70496 144.73194 31725 ft 464 kts 318°
2026-04-10 12:11 63.75471 144.63945 31719 ft 464 kts 318°
2026-04-10 12:12 63.80419 144.54694 31722 ft 464 kts 318°
2026-04-10 12:12 63.85391 144.45348 31720 ft 464 kts 318°
2026-04-10 12:13 63.90391 144.35899 31719 ft 465 kts 318°
2026-04-10 12:13 63.95331 144.26534 31726 ft 466 kts 318°
2026-04-10 12:14 64.00301 144.17055 31735 ft 465 kts 318°
2026-04-10 12:14 64.05260 144.07557 31735 ft 465 kts 318°
2026-04-10 12:15 64.10230 143.98027 31733 ft 466 kts 318°
2026-04-10 12:15 64.15209 143.88480 31733 ft 467 kts 318°
2026-04-10 12:16 64.20181 143.78902 31729 ft 466 kts 318°
2026-04-10 12:16 64.25146 143.69285 31727 ft 466 kts 318°
2026-04-10 12:17 64.30060 143.59708 31724 ft 466 kts 317°
2026-04-10 12:17 64.34986 143.50040 31732 ft 465 kts 317°
2026-04-10 12:18 64.39910 143.40338 31733 ft 466 kts 317°
2026-04-10 12:18 64.44830 143.30592 31727 ft 466 kts 317°
2026-04-10 12:19 64.49754 143.20794 31734 ft 467 kts 317°
2026-04-10 12:19 64.54678 143.10934 31736 ft 468 kts 317°
2026-04-10 12:20 64.59418 143.00547 31733 ft 467 kts 314°
2026-04-10 12:20 64.64046 142.89902 31753 ft 467 kts 314°
2026-04-10 12:21 64.68673 142.79242 31750 ft 468 kts 314°
2026-04-10 12:21 64.73315 142.68579 31747 ft 468 kts 314°
2026-04-10 12:22 64.77921 142.57965 31751 ft 468 kts 314°
2026-04-10 12:22 64.82556 142.47235 31748 ft 468 kts 314°
2026-04-10 12:23 64.87180 142.36474 31751 ft 467 kts 314°
2026-04-10 12:23 64.91789 142.25674 31744 ft 468 kts 314°
2026-04-10 12:24 64.96400 142.14832 31751 ft 468 kts 314°
2026-04-10 12:24 65.00996 142.03973 31756 ft 468 kts 313°
2026-04-10 12:25 65.05596 141.93068 31769 ft 467 kts 314°
2026-04-10 12:25 65.10192 141.82141 31757 ft 468 kts 314°
2026-04-10 12:26 65.14784 141.71157 31764 ft 469 kts 313°
2026-04-10 12:26 65.19373 141.60095 31761 ft 470 kts 313°
2026-04-10 12:27 65.23978 141.48989 31767 ft 470 kts 313°
2026-04-10 12:27 65.28530 141.37934 31763 ft 470 kts 313°
2026-04-10 12:28 65.33101 141.26762 31757 ft 470 kts 313°
2026-04-10 12:28 65.37678 141.15563 31762 ft 470 kts 313°
2026-04-10 12:29 65.42245 141.04335 31757 ft 469 kts 313°
2026-04-10 12:29 65.46799 140.93078 31769 ft 470 kts 313°
2026-04-10 12:30 65.51347 140.81764 31774 ft 470 kts 313°
2026-04-10 12:30 65.55886 140.70420 31764 ft 470 kts 313°
2026-04-10 12:31 65.60421 140.59017 31767 ft 470 kts 313°
2026-04-10 12:31 65.64907 140.47662 31767 ft 470 kts 313°
2026-04-10 12:32 65.69431 140.36191 31761 ft 471 kts 313°
2026-04-10 12:32 65.73959 140.24628 31770 ft 472 kts 313°
2026-04-10 12:33 65.78479 140.13010 31769 ft 473 kts 313°
2026-04-10 12:33 65.82996 140.01347 31767 ft 473 kts 313°
2026-04-10 12:34 65.87506 139.89646 31768 ft 473 kts 313°
2026-04-10 12:34 65.92013 139.77875 31767 ft 473 kts 313°
2026-04-10 12:35 65.96505 139.66081 31766 ft 473 kts 313°
2026-04-10 12:35 66.00992 139.54293 31764 ft 473 kts 312°
2026-04-10 12:36 66.05430 139.42472 31768 ft 473 kts 312°
2026-04-10 12:36 66.09885 139.30533 31770 ft 473 kts 312°
2026-04-10 12:37 66.14346 139.18590 31767 ft 474 kts 312°
2026-04-10 12:37 66.18779 139.06554 31769 ft 474 kts 311°
2026-04-10 12:38 66.23190 138.94413 31781 ft 474 kts 311°
2026-04-10 12:38 66.27595 138.82230 31793 ft 475 kts 311°
2026-04-10 12:39 66.32005 138.69944 31784 ft 476 kts 311°
2026-04-10 12:39 66.36405 138.57646 31782 ft 475 kts 311°
2026-04-10 12:40 66.40751 138.45419 31781 ft 473 kts 311°
2026-04-10 12:40 66.45104 138.33111 31796 ft 472 kts 311°
2026-04-10 12:41 66.49440 138.20780 31796 ft 471 kts 311°
2026-04-10 12:41 66.53757 138.08436 31792 ft 470 kts 311°
2026-04-10 12:42 66.58064 137.96037 31806 ft 471 kts 311°
2026-04-10 12:42 66.62363 137.83586 31800 ft 471 kts 310°
2026-04-10 12:43 66.66665 137.71060 31798 ft 473 kts 310°
2026-04-10 12:43 66.70954 137.58510 31796 ft 472 kts 310°
2026-04-10 12:44 66.75247 137.45901 31799 ft 473 kts 310°
2026-04-10 12:44 66.79543 137.33237 31798 ft 474 kts 310°
2026-04-10 12:45 66.83836 137.20519 31795 ft 474 kts 310°
2026-04-10 12:45 66.88079 137.07836 31794 ft 474 kts 310°
2026-04-10 12:46 66.92343 136.95044 31800 ft 474 kts 310°
2026-04-10 12:46 66.96600 136.82205 31800 ft 474 kts 310°
2026-04-10 12:47 67.00860 136.69280 31798 ft 475 kts 310°
2026-04-10 12:47 67.05105 136.56299 31795 ft 476 kts 310°
2026-04-10 12:48 67.09337 136.43294 31786 ft 474 kts 310°
2026-04-10 12:48 67.12838 136.32483 31803 ft 474 kts 310°
2026-04-10 12:49 67.17756 136.17212 31798 ft 473 kts 310°
2026-04-10 12:49 67.21967 136.04135 31789 ft 474 kts 310°
2026-04-10 12:50 67.26177 135.91182 31796 ft 474 kts 310°
2026-04-10 12:50 67.30410 135.78097 31794 ft 474 kts 310°
2026-04-10 12:51 67.33943 135.67075 31796 ft 474 kts 310°
2026-04-10 12:51 67.38837 135.51718 31794 ft 475 kts 310°
2026-04-10 12:52 67.42324 135.40701 31794 ft 474 kts 310°
2026-04-10 12:52 67.47192 135.25243 31793 ft 472 kts 310°
2026-04-10 12:53 67.50643 135.14215 31805 ft 472 kts 309°
2026-04-10 12:53 67.54788 135.00875 31801 ft 473 kts 309°
2026-04-10 12:54 67.58917 134.87512 31802 ft 471 kts 309°
2026-04-10 12:54 67.63032 134.74139 31805 ft 471 kts 309°
2026-04-10 12:55 67.67171 134.60841 31798 ft 470 kts 310°
2026-04-10 12:55 67.71415 134.47741 31807 ft 470 kts 311°
2026-04-10 12:56 67.75632 134.34712 31805 ft 470 kts 311°
2026-04-10 12:56 67.79843 134.21485 31805 ft 471 kts 310°
2026-04-10 12:57 67.84039 134.08192 31801 ft 471 kts 310°
2026-04-10 12:57 67.88244 133.94822 31805 ft 472 kts 310°
2026-04-10 12:58 67.92444 133.81380 31808 ft 473 kts 310°
2026-04-10 12:58 67.96643 133.67902 31815 ft 472 kts 310°
2026-04-10 12:59 68.00880 133.54569 31817 ft 471 kts 311°
2026-04-10 12:59 68.05119 133.41221 31818 ft 471 kts 310°
2026-04-10 13:00 68.09337 133.27779 31826 ft 472 kts 310°
2026-04-10 13:00 68.13504 133.14272 31825 ft 475 kts 309°
2026-04-10 13:01 68.17643 133.00489 31826 ft 473 kts 309°
2026-04-10 13:01 68.21750 132.86690 31823 ft 471 kts 309°
2026-04-10 13:02 68.25840 132.72894 31820 ft 469 kts 309°
2026-04-10 13:02 68.29900 132.59153 31825 ft 467 kts 309°
2026-04-10 13:03 68.33933 132.45419 31829 ft 465 kts 309°
2026-04-10 13:03 68.37910 132.31772 31852 ft 464 kts 309°
2026-04-10 13:04 68.41904 132.17989 31833 ft 464 kts 309°
2026-04-10 13:04 68.45891 132.04176 31831 ft 464 kts 309°
2026-04-10 13:05 68.49850 131.90328 31849 ft 463 kts 309°
2026-04-10 13:05 68.53802 131.76433 31824 ft 464 kts 308°
2026-04-10 13:06 68.57746 131.62447 31830 ft 463 kts 308°
2026-04-10 13:06 68.61676 131.48442 31835 ft 464 kts 308°
2026-04-10 13:07 68.65601 131.34397 31834 ft 464 kts 308°
2026-04-10 13:07 68.69506 131.20253 31850 ft 465 kts 308°
2026-04-10 13:08 68.73414 131.06046 31827 ft 465 kts 308°
2026-04-10 13:08 68.77298 130.91871 31835 ft 466 kts 308°
2026-04-10 13:09 68.83133 130.70384 31831 ft 466 kts 307°
2026-04-10 13:09 68.87003 130.55991 31834 ft 465 kts 307°
2026-04-10 13:10 68.90850 130.41589 31831 ft 464 kts 307°
2026-04-10 13:10 68.94678 130.27178 31833 ft 463 kts 307°
2026-04-10 13:11 68.98487 130.12722 31831 ft 462 kts 307°
2026-04-10 13:11 69.02266 129.98288 31833 ft 461 kts 307°
2026-04-10 13:12 69.06033 129.83815 31850 ft 461 kts 307°
2026-04-10 13:12 69.09793 129.69265 31836 ft 460 kts 307°
2026-04-10 13:13 69.13524 129.54710 31858 ft 460 kts 307°
2026-04-10 13:13 69.17249 129.40108 31862 ft 460 kts 306°
2026-04-10 13:14 69.20942 129.25528 31857 ft 461 kts 306°
2026-04-10 13:14 69.24653 129.10803 31863 ft 461 kts 306°
2026-04-10 13:15 69.28374 128.95936 31860 ft 461 kts 306°
2026-04-10 13:15 69.32065 128.81268 31860 ft 461 kts 306°
2026-04-10 13:16 69.35768 128.66490 31866 ft 460 kts 306°
2026-04-10 13:16 69.39452 128.51664 31865 ft 460 kts 306°
2026-04-10 13:17 69.43126 128.36769 31870 ft 459 kts 306°
2026-04-10 13:17 69.46771 128.21869 31870 ft 458 kts 306°
2026-04-10 13:18 69.50407 128.06906 31870 ft 459 kts 306°
2026-04-10 13:18 69.54054 127.91881 31871 ft 461 kts 306°
2026-04-10 13:19 69.57659 127.76857 31871 ft 460 kts 305°
2026-04-10 13:19 69.61278 127.61630 31865 ft 459 kts 305°
2026-04-10 13:20 69.64860 127.46473 31873 ft 458 kts 305°
2026-04-10 13:20 69.68406 127.31367 31873 ft 458 kts 305°
2026-04-10 13:21 69.71954 127.16144 31870 ft 458 kts 304°
2026-04-10 13:21 69.75488 127.00874 31873 ft 457 kts 304°
2026-04-10 13:22 69.79013 126.85567 31874 ft 457 kts 304°
2026-04-10 13:22 69.82492 126.70328 31869 ft 456 kts 304°
2026-04-10 13:23 69.85974 126.54971 31869 ft 455 kts 304°
2026-04-10 13:23 69.89443 126.39564 31882 ft 455 kts 304°
2026-04-10 13:24 69.92877 126.24026 31882 ft 457 kts 303°
2026-04-10 13:24 69.96305 126.08377 31883 ft 458 kts 303°
2026-04-10 13:25 69.99720 125.92662 31878 ft 459 kts 303°
2026-04-10 13:25 70.03114 125.76968 31885 ft 459 kts 303°
2026-04-10 13:26 70.06509 125.61131 31875 ft 459 kts 303°
2026-04-10 13:26 70.09887 125.45277 31878 ft 458 kts 303°
2026-04-10 13:27 70.13253 125.29349 31879 ft 459 kts 302°
2026-04-10 13:27 70.16595 125.13410 31879 ft 458 kts 302°
2026-04-10 13:28 70.19917 124.97457 31884 ft 457 kts 302°
2026-04-10 13:28 70.23241 124.81380 31884 ft 458 kts 302°
2026-04-10 13:29 70.26555 124.65221 31885 ft 459 kts 302°
2026-04-10 13:29 70.29830 124.49147 31891 ft 459 kts 301°
2026-04-10 13:30 70.33111 124.32896 31888 ft 460 kts 301°
2026-04-10 13:30 70.36384 124.16568 31881 ft 459 kts 301°
2026-04-10 13:31 70.39638 124.00208 31874 ft 458 kts 301°
2026-04-10 13:31 70.42865 123.83879 31879 ft 457 kts 301°
2026-04-10 13:32 70.46084 123.67464 31880 ft 458 kts 301°
2026-04-10 13:32 70.49295 123.50979 31880 ft 459 kts 300°
2026-04-10 13:33 70.52514 123.34471 31880 ft 459 kts 301°
2026-04-10 13:33 70.55724 123.18090 31882 ft 458 kts 301°
2026-04-10 13:34 70.58956 123.01431 31880 ft 459 kts 301°
2026-04-10 13:34 70.62147 122.84847 31877 ft 458 kts 300°
2026-04-10 13:35 70.65321 122.68209 31877 ft 458 kts 300°
2026-04-10 13:35 70.68459 122.51612 31877 ft 457 kts 300°
2026-04-10 13:36 70.71601 122.34890 31880 ft 458 kts 300°
2026-04-10 13:36 70.74719 122.18093 31881 ft 458 kts 300°
2026-04-10 13:37 70.77821 122.01216 31891 ft 459 kts 299°
2026-04-10 13:37 70.80905 121.84222 31887 ft 458 kts 299°
2026-04-10 13:38 70.83979 121.67250 31889 ft 459 kts 299°
2026-04-10 13:38 70.87045 121.50187 31889 ft 459 kts 299°
2026-04-10 13:39 70.89581 121.35949 31889 ft 459 kts 299°
2026-04-10 13:39 70.92608 121.18830 31890 ft 460 kts 298°
2026-04-10 13:40 70.95637 121.01556 31887 ft 459 kts 298°
2026-04-10 13:40 70.98638 120.84296 31888 ft 459 kts 298°
2026-04-10 13:41 71.01624 120.66981 31888 ft 458 kts 298°
2026-04-10 13:41 71.04605 120.49547 32173 ft 463 kts 298°
2026-04-10 13:42 71.06095 120.40797 32505 ft 462 kts 298°
2026-04-10 13:42 71.07577 120.32028 32806 ft 462 kts 297°
2026-04-10 13:42 71.09054 120.23211 33011 ft 463 kts 297°
2026-04-10 13:42 71.10523 120.14355 33199 ft 465 kts 297°
2026-04-10 13:43 71.11987 120.05460 33449 ft 465 kts 297°
2026-04-10 13:43 71.13450 119.96543 33700 ft 465 kts 297°
2026-04-10 13:43 71.14914 119.87590 33801 ft 468 kts 297°
2026-04-10 13:43 71.16384 119.78574 33849 ft 470 kts 297°
2026-04-10 13:44 71.19315 119.60486 33879 ft 469 kts 296°
2026-04-10 13:44 71.22217 119.42415 33885 ft 467 kts 296°
2026-04-10 13:45 71.25073 119.24475 33893 ft 465 kts 296°
2026-04-10 13:45 71.27922 119.06431 33904 ft 464 kts 296°
2026-04-10 13:46 71.30765 118.88352 33903 ft 466 kts 296°
2026-04-10 13:46 71.33601 118.70151 33899 ft 468 kts 296°
2026-04-10 13:47 71.36426 118.51792 33898 ft 469 kts 295°
2026-04-10 13:47 71.39244 118.33335 33898 ft 470 kts 295°
2026-04-10 13:48 71.42048 118.14800 33899 ft 470 kts 295°
2026-04-10 13:48 71.44831 117.96226 33899 ft 470 kts 295°
2026-04-10 13:49 71.47587 117.77631 33894 ft 470 kts 295°
2026-04-10 13:49 71.50336 117.58978 33900 ft 470 kts 295°
2026-04-10 13:50 71.53064 117.40238 33900 ft 470 kts 294°
2026-04-10 13:50 71.55753 117.21543 33892 ft 471 kts 294°
2026-04-10 13:51 71.58457 117.02669 33900 ft 470 kts 294°
2026-04-10 13:51 71.61132 116.83761 33906 ft 470 kts 294°
2026-04-10 13:52 71.63783 116.64826 33912 ft 470 kts 294°
2026-04-10 13:52 71.66420 116.45823 33902 ft 470 kts 293°
2026-04-10 13:53 71.69035 116.26769 33907 ft 469 kts 293°
2026-04-10 13:53 71.71630 116.07708 33907 ft 469 kts 293°
2026-04-10 13:54 71.74204 115.88610 33838 ft 470 kts 292°
2026-04-10 13:54 71.76755 115.69393 33830 ft 470 kts 292°
2026-04-10 13:55 71.79280 115.50316 33838 ft 468 kts 292°
2026-04-10 13:55 71.81792 115.31069 33831 ft 469 kts 292°
2026-04-10 13:56 71.84291 115.11772 33837 ft 470 kts 292°
2026-04-10 13:56 71.86777 114.92370 33837 ft 471 kts 292°
2026-04-10 13:57 71.89242 114.72836 33835 ft 472 kts 291°
2026-04-10 13:57 71.91691 114.53271 33833 ft 472 kts 291°
2026-04-10 13:58 71.94125 114.33649 33836 ft 472 kts 291°
2026-04-10 13:58 71.96539 114.13971 33833 ft 471 kts 291°
2026-04-10 13:59 71.98901 113.94231 33835 ft 471 kts 290°
2026-04-10 13:59 72.01222 113.74461 33841 ft 469 kts 290°
2026-04-10 14:00 72.03504 113.54821 33840 ft 469 kts 290°
2026-04-10 14:00 72.05787 113.34994 33842 ft 470 kts 290°
2026-04-10 14:01 72.08064 113.15022 33839 ft 471 kts 290°
2026-04-10 14:01 72.10320 112.95010 33845 ft 472 kts 290°
2026-04-10 14:02 72.12560 112.74914 33845 ft 473 kts 289°
2026-04-10 14:02 72.14779 112.54757 33840 ft 473 kts 289°
2026-04-10 14:03 72.16982 112.34548 33840 ft 473 kts 289°
2026-04-10 14:03 72.19143 112.14412 33841 ft 473 kts 289°
2026-04-10 14:04 72.21326 111.94099 33843 ft 473 kts 289°
2026-04-10 14:05 72.24563 111.63645 33853 ft 472 kts 289°
2026-04-10 14:05 72.26695 111.43264 33852 ft 472 kts 288°
2026-04-10 14:06 72.28793 111.22936 33852 ft 472 kts 288°
2026-04-10 14:06 72.30885 111.02436 33854 ft 473 kts 288°
2026-04-10 14:07 72.32958 110.81873 33858 ft 474 kts 288°
2026-04-10 14:07 72.35006 110.61237 33855 ft 475 kts 288°
2026-04-10 14:08 72.37037 110.40517 33843 ft 474 kts 287°
2026-04-10 14:08 72.39044 110.19794 33837 ft 474 kts 287°
2026-04-10 14:09 72.41013 109.99159 33842 ft 473 kts 287°
2026-04-10 14:09 72.42974 109.78423 33837 ft 472 kts 287°
2026-04-10 14:10 72.44913 109.57638 33842 ft 472 kts 287°
2026-04-10 14:10 72.46823 109.36835 33846 ft 472 kts 287°
2026-04-10 14:11 72.48712 109.15958 33843 ft 473 kts 286°
2026-04-10 14:11 72.50583 108.95019 33843 ft 473 kts 286°
2026-04-10 14:12 72.52438 108.73984 33843 ft 474 kts 286°
2026-04-10 14:12 72.54271 108.52898 33841 ft 475 kts 286°
2026-04-10 14:13 72.56083 108.31742 33855 ft 475 kts 285°
2026-04-10 14:13 72.57870 108.10645 33854 ft 475 kts 285°
2026-04-10 14:14 72.59639 107.89380 33850 ft 476 kts 285°
2026-04-10 14:14 72.61388 107.68045 33852 ft 476 kts 285°
2026-04-10 14:15 72.63117 107.46643 33855 ft 475 kts 285°
2026-04-10 14:15 72.64826 107.25274 33852 ft 476 kts 284°
2026-04-10 14:16 72.66503 107.03841 33849 ft 475 kts 284°
2026-04-10 14:16 72.68157 106.82386 33853 ft 474 kts 284°
2026-04-10 14:17 72.69786 106.60922 33848 ft 474 kts 284°
2026-04-10 14:17 72.71392 106.39409 33852 ft 475 kts 284°
2026-04-10 14:18 72.72977 106.17853 33855 ft 475 kts 283°
2026-04-10 14:18 72.74547 105.96225 33854 ft 476 kts 283°
2026-04-10 14:19 72.76079 105.74710 33847 ft 476 kts 283°
2026-04-10 14:19 72.77591 105.53017 33849 ft 475 kts 283°
2026-04-10 14:20 72.79089 105.31273 33854 ft 476 kts 283°
2026-04-10 14:20 72.80565 105.09470 33850 ft 476 kts 282°
2026-04-10 14:21 72.82017 104.87610 33849 ft 477 kts 282°
2026-04-10 14:21 72.83450 104.65693 33853 ft 477 kts 282°
2026-04-10 14:22 72.84859 104.43722 33852 ft 477 kts 282°
2026-04-10 14:22 72.86245 104.21710 33848 ft 476 kts 282°
2026-04-10 14:23 72.87592 103.99776 33854 ft 476 kts 281°
2026-04-10 14:23 72.88928 103.77717 33850 ft 476 kts 281°
2026-04-10 14:24 72.90232 103.55676 33857 ft 476 kts 281°
2026-04-10 14:24 72.91514 103.33765 33893 ft 475 kts 281°
2026-04-10 14:25 72.92774 103.11710 33977 ft 474 kts 281°
2026-04-10 14:25 72.94006 102.89614 33991 ft 476 kts 281°
2026-04-10 14:26 72.95223 102.67367 33997 ft 478 kts 280°
2026-04-10 14:26 72.96423 102.45031 33999 ft 480 kts 280°
2026-04-10 14:27 72.97402 102.26379 34000 ft 480 kts 280°
2026-04-10 14:27 72.98746 102.00123 34000 ft 481 kts 279°
2026-04-10 14:28 72.99679 101.81444 33997 ft 479 kts 279°
2026-04-10 14:28 73.00782 101.59001 33999 ft 478 kts 279°
2026-04-10 14:29 73.01858 101.36586 33996 ft 478 kts 279°
2026-04-10 14:29 73.02907 101.14168 34003 ft 477 kts 279°
2026-04-10 14:30 73.03931 100.91694 34005 ft 476 kts 279°
2026-04-10 14:30 73.04928 100.69295 34012 ft 476 kts 278°
2026-04-10 14:31 73.05899 100.46924 34014 ft 477 kts 278°
2026-04-10 14:31 73.06848 100.24401 34009 ft 477 kts 278°
2026-04-10 14:32 73.07779 100.01814 34011 ft 478 kts 278°
2026-04-10 14:32 73.08683 99.79197 34011 ft 479 kts 278°
2026-04-10 14:33 73.09562 99.56484 34008 ft 480 kts 278°
2026-04-10 14:33 73.10419 99.33751 34016 ft 479 kts 277°
2026-04-10 14:34 73.11247 99.11014 34016 ft 479 kts 277°
2026-04-10 14:34 73.12056 98.88205 34020 ft 480 kts 277°
2026-04-10 14:35 73.12832 98.65452 34048 ft 479 kts 277°
2026-04-10 14:35 73.13588 98.42693 34093 ft 477 kts 277°
2026-04-10 14:36 73.14310 98.20143 34099 ft 477 kts 276°
2026-04-10 14:36 73.15003 97.97355 34097 ft 479 kts 276°
2026-04-10 14:37 73.15688 97.74487 34106 ft 480 kts 276°
2026-04-10 14:37 73.16348 97.51548 34103 ft 482 kts 276°
2026-04-10 14:38 73.16979 97.28544 34110 ft 482 kts 276°
2026-04-10 14:38 73.17584 97.05511 34116 ft 482 kts 276°
2026-04-10 14:39 73.18176 96.82518 34104 ft 481 kts 275°
2026-04-10 14:39 73.18723 96.59499 34111 ft 480 kts 275°
2026-04-10 14:40 73.19249 96.36528 34109 ft 480 kts 275°
2026-04-10 14:40 73.19746 96.13544 34118 ft 479 kts 275°
2026-04-10 14:41 73.20225 95.90529 34121 ft 479 kts 275°
2026-04-10 14:41 73.20668 95.67680 34121 ft 479 kts 275°
2026-04-10 14:42 73.21094 95.44673 34122 ft 479 kts 274°
2026-04-10 14:42 73.21495 95.21678 34118 ft 479 kts 274°
2026-04-10 14:43 73.21870 94.98678 34165 ft 478 kts 274°
2026-04-10 14:43 73.22216 94.75612 34180 ft 479 kts 274°
2026-04-10 14:44 73.22540 94.52538 34177 ft 481 kts 274°
2026-04-10 14:44 73.22837 94.29404 34178 ft 483 kts 273°
2026-04-10 14:45 73.23111 94.06173 34177 ft 482 kts 273°
2026-04-10 14:45 73.23355 93.83094 34174 ft 481 kts 273°
2026-04-10 14:46 73.23573 93.60031 34175 ft 479 kts 273°
2026-04-10 14:46 73.23769 93.36934 34179 ft 480 kts 272°
2026-04-10 14:47 73.23938 93.13800 34174 ft 480 kts 272°
2026-04-10 14:47 73.24079 92.90646 34178 ft 481 kts 272°
2026-04-10 14:48 73.24195 92.67464 34175 ft 482 kts 272°
2026-04-10 14:48 73.24289 92.44234 34185 ft 482 kts 272°
2026-04-10 14:49 73.24352 92.20975 34181 ft 483 kts 272°
2026-04-10 14:49 73.24392 91.97691 34186 ft 483 kts 271°
2026-04-10 14:50 73.24405 91.74395 34177 ft 483 kts 271°
2026-04-10 14:50 73.24390 91.51109 34179 ft 483 kts 271°
2026-04-10 14:51 73.24355 91.27852 34173 ft 482 kts 271°
2026-04-10 14:51 73.24292 91.04766 34176 ft 482 kts 271°
2026-04-10 14:52 73.24201 90.81539 34178 ft 481 kts 271°
2026-04-10 14:52 73.24079 90.58355 34176 ft 481 kts 270°
2026-04-10 14:53 73.23942 90.35211 34181 ft 480 kts 270°
2026-04-10 14:53 73.23780 90.12120 34173 ft 479 kts 270°
2026-04-10 14:54 73.23581 89.88995 34178 ft 481 kts 270°
2026-04-10 14:54 73.23360 89.65747 34182 ft 484 kts 270°
2026-04-10 14:55 73.23116 89.42416 34181 ft 485 kts 270°
2026-04-10 14:55 73.22846 89.19285 34170 ft 483 kts 269°
2026-04-10 14:56 73.22231 88.96119 34177 ft 484 kts 265°
2026-04-10 14:56 73.21426 88.72988 34174 ft 483 kts 265°
2026-04-10 14:57 73.20601 88.49920 34176 ft 483 kts 265°
2026-04-10 14:57 73.19768 88.26837 34185 ft 483 kts 265°
2026-04-10 14:58 73.18923 88.03809 34174 ft 484 kts 264°
2026-04-10 14:58 73.18051 87.80754 34177 ft 484 kts 264°
2026-04-10 14:59 73.17151 87.57712 34174 ft 484 kts 264°
2026-04-10 14:59 73.16220 87.34682 34178 ft 484 kts 264°
2026-04-10 15:00 73.15283 87.11821 34154 ft 485 kts 264°
2026-04-10 15:00 73.14303 86.88791 34064 ft 486 kts 264°
2026-04-10 15:01 73.13300 86.65821 34025 ft 485 kts 264°
2026-04-10 15:01 73.12269 86.42861 34015 ft 484 kts 263°
2026-04-10 15:02 73.11215 86.20011 34008 ft 482 kts 263°
2026-04-10 15:02 73.10142 85.97279 34009 ft 482 kts 263°
2026-04-10 15:03 73.09050 85.74579 34007 ft 482 kts 263°
2026-04-10 15:03 73.07923 85.51858 34004 ft 482 kts 263°
2026-04-10 15:04 73.06782 85.29338 33999 ft 483 kts 262°
2026-04-10 15:04 73.05606 85.06665 34004 ft 483 kts 262°
2026-04-10 15:05 73.03790 84.72673 33992 ft 483 kts 262°
2026-04-10 15:05 73.02554 84.50084 33993 ft 484 kts 262°
2026-04-10 15:06 73.01289 84.27473 33991 ft 483 kts 262°
2026-04-10 15:06 72.99999 84.04944 33989 ft 484 kts 261°
2026-04-10 15:07 72.98682 83.82366 33981 ft 483 kts 261°
2026-04-10 15:07 72.97346 83.59886 33982 ft 483 kts 261°
2026-04-10 15:08 72.95995 83.37475 33979 ft 482 kts 261°
2026-04-10 15:08 72.94605 83.15064 33976 ft 483 kts 261°
2026-04-10 15:09 72.93193 82.92698 33969 ft 483 kts 261°
2026-04-10 15:09 72.91753 82.70337 33964 ft 484 kts 261°
2026-04-10 15:10 72.90291 82.47998 33963 ft 484 kts 261°
2026-04-10 15:10 72.88799 82.25670 33961 ft 484 kts 260°
2026-04-10 15:11 72.87297 82.03560 33944 ft 484 kts 260°
2026-04-10 15:11 72.85757 81.81318 33950 ft 484 kts 260°
2026-04-10 15:12 72.84203 81.59162 33944 ft 483 kts 260°
2026-04-10 15:12 72.82626 81.37068 33933 ft 482 kts 260°
2026-04-10 15:13 72.81020 81.14998 33939 ft 484 kts 259°
2026-04-10 15:13 72.79380 80.92909 33933 ft 485 kts 259°
2026-04-10 15:14 72.77721 80.70874 33926 ft 485 kts 259°
2026-04-10 15:14 72.76036 80.48810 33921 ft 486 kts 259°
2026-04-10 15:15 72.74617 80.30498 33917 ft 485 kts 259°
2026-04-10 15:15 72.72604 80.04983 33903 ft 484 kts 259°
2026-04-10 15:16 72.70857 79.83134 33907 ft 483 kts 259°
2026-04-10 15:16 72.69093 79.61365 33905 ft 482 kts 258°
2026-04-10 15:17 72.67293 79.39647 33899 ft 482 kts 258°
2026-04-10 15:17 72.65788 79.21672 33896 ft 482 kts 258°
2026-04-10 15:18 72.63947 79.00051 33888 ft 483 kts 258°
2026-04-10 15:18 72.62086 78.78450 33884 ft 483 kts 258°
2026-04-10 15:19 72.60206 78.56909 33879 ft 483 kts 258°
2026-04-10 15:19 72.58296 78.35382 33865 ft 483 kts 258°
2026-04-10 15:20 72.56359 78.13870 33867 ft 483 kts 258°
2026-04-10 15:20 72.54407 77.92457 33861 ft 483 kts 257°
2026-04-10 15:21 72.52434 77.71110 33855 ft 482 kts 257°
2026-04-10 15:21 72.50445 77.49835 33857 ft 482 kts 257°
2026-04-10 15:22 72.48423 77.28599 33850 ft 482 kts 257°
2026-04-10 15:22 72.46397 77.07540 33847 ft 482 kts 257°
2026-04-10 15:23 72.44333 76.86388 33837 ft 482 kts 257°
2026-04-10 15:23 72.42248 76.65290 33839 ft 482 kts 257°
2026-04-10 15:24 72.40138 76.44193 33832 ft 483 kts 256°
2026-04-10 15:24 72.38008 76.23197 33833 ft 483 kts 256°
2026-04-10 15:25 72.35844 76.02134 33802 ft 484 kts 256°
2026-04-10 15:25 72.33674 75.81262 33800 ft 484 kts 256°
2026-04-10 15:26 72.31483 75.60368 33796 ft 483 kts 256°
2026-04-10 15:26 72.29257 75.39527 33795 ft 483 kts 255°
2026-04-10 15:27 72.27003 75.18724 33791 ft 484 kts 255°
2026-04-10 15:27 72.24726 74.97958 33783 ft 485 kts 255°
2026-04-10 15:28 72.22423 74.77178 33790 ft 485 kts 255°
2026-04-10 15:28 72.20101 74.56459 33787 ft 485 kts 255°
2026-04-10 15:29 72.17754 74.35774 33788 ft 486 kts 255°
2026-04-10 15:29 72.15398 74.15239 33788 ft 485 kts 255°
2026-04-10 15:30 72.13012 73.94678 33784 ft 485 kts 254°
2026-04-10 15:30 72.10607 73.74162 33786 ft 485 kts 254°
2026-04-10 15:31 72.08183 73.53722 33787 ft 485 kts 254°
2026-04-10 15:31 72.05730 73.33315 33787 ft 485 kts 253°
2026-04-10 15:32 72.03255 73.12965 33783 ft 485 kts 253°
2026-04-10 15:32 72.00762 72.92639 33780 ft 486 kts 253°
2026-04-10 15:33 71.98260 72.72533 33783 ft 484 kts 253°
2026-04-10 15:33 71.95723 72.52370 33787 ft 485 kts 253°
2026-04-10 15:34 71.93170 72.32253 33782 ft 485 kts 253°
2026-04-10 15:34 71.90590 72.12188 33760 ft 486 kts 253°
2026-04-10 15:35 71.87999 71.92062 33784 ft 486 kts 253°
2026-04-10 15:35 71.85378 71.72084 33773 ft 487 kts 252°
2026-04-10 15:36 71.82712 71.52015 33760 ft 488 kts 252°
2026-04-10 15:36 71.80032 71.32059 33782 ft 488 kts 252°
2026-04-10 15:37 71.77335 71.12182 33781 ft 487 kts 252°
2026-04-10 15:37 71.74631 70.92401 33777 ft 486 kts 252°
2026-04-10 15:38 71.71928 70.72809 33780 ft 486 kts 252°
2026-04-10 15:38 71.69186 70.53184 33781 ft 485 kts 252°
2026-04-10 15:39 71.66418 70.33566 33782 ft 486 kts 252°
2026-04-10 15:39 71.63629 70.14017 33782 ft 486 kts 252°
2026-04-10 15:40 71.60827 69.94535 33785 ft 486 kts 252°
2026-04-10 15:40 71.58020 69.75231 33785 ft 486 kts 252°
2026-04-10 15:41 71.55179 69.55861 33791 ft 485 kts 251°
2026-04-10 15:41 71.52320 69.36576 33787 ft 487 kts 251°
2026-04-10 15:42 71.49422 69.17236 33788 ft 488 kts 251°
2026-04-10 15:42 71.46502 68.97918 33784 ft 489 kts 251°
2026-04-10 15:43 71.43556 68.78628 33789 ft 489 kts 251°
2026-04-10 15:43 71.40596 68.59431 33792 ft 489 kts 251°
2026-04-10 15:44 71.37608 68.40252 33797 ft 489 kts 251°
2026-04-10 15:44 71.34607 68.21148 33797 ft 489 kts 251°
2026-04-10 15:45 71.31584 68.02100 33796 ft 489 kts 251°
2026-04-10 15:45 71.28565 67.83262 33802 ft 489 kts 251°
2026-04-10 15:46 71.25513 67.64385 33797 ft 489 kts 251°
2026-04-10 15:46 71.22436 67.45529 33814 ft 488 kts 251°
2026-04-10 15:47 71.19346 67.26762 33821 ft 489 kts 251°
2026-04-10 15:47 71.16235 67.08039 33825 ft 489 kts 251°
2026-04-10 15:48 71.13103 66.89354 33825 ft 489 kts 250°
2026-04-10 15:48 71.09950 66.70711 33832 ft 490 kts 250°
2026-04-10 15:49 71.06789 66.52216 33834 ft 491 kts 250°
2026-04-10 15:49 71.03583 66.33609 33837 ft 492 kts 250°
2026-04-10 15:50 71.00359 66.15071 33832 ft 492 kts 250°
2026-04-10 15:50 70.97122 65.96614 33841 ft 491 kts 250°
2026-04-10 15:51 70.93843 65.78292 33842 ft 493 kts 248°
2026-04-10 15:51 70.89809 65.60943 33861 ft 503 kts 240°
2026-04-10 15:52 70.85452 65.44199 33851 ft 504 kts 239°
2026-04-10 15:52 70.81093 65.27523 33858 ft 503 kts 240°
2026-04-10 15:53 70.76751 65.10888 33861 ft 502 kts 240°
2026-04-10 15:53 70.72412 64.94265 33865 ft 503 kts 240°
2026-04-10 15:54 70.68054 64.77694 33876 ft 502 kts 240°
2026-04-10 15:54 70.63683 64.61231 33869 ft 503 kts 240°
2026-04-10 15:55 70.59323 64.44929 33885 ft 503 kts 240°
2026-04-10 15:55 70.54904 64.28580 33880 ft 504 kts 240°
2026-04-10 15:56 70.50462 64.12254 33893 ft 505 kts 239°
2026-04-10 15:56 70.46007 63.95999 33889 ft 505 kts 239°
2026-04-10 15:57 70.41527 63.79761 33904 ft 506 kts 239°
2026-04-10 15:57 70.37060 63.63696 33904 ft 507 kts 239°
2026-04-10 15:58 70.32544 63.47585 33908 ft 508 kts 239°
2026-04-10 15:58 70.27990 63.31561 33901 ft 507 kts 239°
2026-04-10 15:59 70.23456 63.15562 33920 ft 506 kts 239°
2026-04-10 15:59 70.18917 62.99682 33916 ft 507 kts 239°
2026-04-10 16:00 70.14348 62.83866 33925 ft 506 kts 239°
2026-04-10 16:00 70.09772 62.68142 33924 ft 506 kts 239°
2026-04-10 16:01 70.05205 62.52571 33944 ft 507 kts 239°
2026-04-10 16:01 70.00595 62.36949 33936 ft 508 kts 239°
2026-04-10 16:02 69.95960 62.21352 33954 ft 510 kts 239°
2026-04-10 16:02 69.91300 62.05774 33953 ft 510 kts 239°
2026-04-10 16:03 69.86647 61.90164 33951 ft 510 kts 239°
2026-04-10 16:03 69.81994 61.74595 33952 ft 511 kts 239°
2026-04-10 16:04 69.77347 61.59075 33948 ft 507 kts 241°
2026-04-10 16:04 69.74050 61.45365 33952 ft 493 kts 250°
2026-04-10 16:05 69.70576 61.28303 33964 ft 494 kts 250°
2026-04-10 16:05 69.67039 61.11311 33964 ft 494 kts 249°
2026-04-10 16:06 69.63456 60.94400 33958 ft 496 kts 249°
2026-04-10 16:06 69.59852 60.77509 33972 ft 496 kts 249°
2026-04-10 16:07 69.56245 60.60723 33970 ft 496 kts 249°
2026-04-10 16:07 69.52608 60.43920 33969 ft 496 kts 249°
2026-04-10 16:08 69.48993 60.27283 33959 ft 496 kts 249°
2026-04-10 16:08 69.45357 60.10592 33951 ft 496 kts 249°
2026-04-10 16:09 69.41682 59.93858 33966 ft 495 kts 249°
2026-04-10 16:09 69.38039 59.77415 33979 ft 495 kts 249°
2026-04-10 16:10 69.34353 59.60893 33982 ft 496 kts 249°
2026-04-10 16:10 69.30645 59.44415 33989 ft 496 kts 249°
2026-04-10 16:11 69.26919 59.27945 33990 ft 498 kts 248°
2026-04-10 16:11 69.23162 59.11490 33995 ft 500 kts 248°
2026-04-10 16:12 69.19370 58.95014 33995 ft 502 kts 247°
2026-04-10 16:13 69.13464 58.70677 33999 ft 505 kts 246°
2026-04-10 16:13 69.09470 58.54510 33998 ft 504 kts 246°
2026-04-10 16:14 69.05484 58.38405 34003 ft 504 kts 246°
2026-04-10 16:14 69.01468 58.22271 34005 ft 505 kts 245°
2026-04-10 16:15 68.97448 58.06192 34009 ft 506 kts 245°
2026-04-10 16:15 68.93386 57.90088 34012 ft 509 kts 245°
2026-04-10 16:16 68.89316 57.74003 34008 ft 507 kts 245°
2026-04-10 16:16 68.85345 57.57862 34019 ft 506 kts 246°
2026-04-10 16:17 68.81412 57.41879 34015 ft 505 kts 246°
2026-04-10 16:17 68.77424 57.25890 34017 ft 505 kts 245°
2026-04-10 16:18 68.73415 57.09971 34016 ft 505 kts 245°
2026-04-10 16:18 68.69400 56.94100 34029 ft 505 kts 245°
2026-04-10 16:19 68.65390 56.78248 34024 ft 505 kts 245°
2026-04-10 16:19 68.61375 56.62449 34028 ft 504 kts 245°
2026-04-10 16:20 68.57342 56.46734 34045 ft 504 kts 244°
2026-04-10 16:20 68.53289 56.31053 34033 ft 505 kts 244°
2026-04-10 16:21 68.49243 56.15505 34044 ft 506 kts 244°
2026-04-10 16:21 68.45159 55.99921 34051 ft 505 kts 244°
2026-04-10 16:22 68.41057 55.84390 34068 ft 505 kts 244°
2026-04-10 16:22 68.36944 55.68925 34064 ft 506 kts 243°
2026-04-10 16:23 68.32817 55.53501 34073 ft 506 kts 243°
2026-04-10 16:23 68.28671 55.38111 34075 ft 506 kts 243°
2026-04-10 16:24 68.24508 55.22799 34085 ft 506 kts 243°
2026-04-10 16:24 68.20337 55.07519 34091 ft 505 kts 243°
2026-04-10 16:25 68.16181 54.92427 34086 ft 505 kts 242°
2026-04-10 16:25 68.11998 54.77334 34099 ft 504 kts 242°
2026-04-10 16:26 68.07801 54.62276 34096 ft 504 kts 242°
2026-04-10 16:26 68.03589 54.47251 34107 ft 504 kts 242°
2026-04-10 16:27 67.99374 54.32329 34100 ft 504 kts 241°
2026-04-10 16:27 67.95161 54.17510 34108 ft 504 kts 241°
2026-04-10 16:28 67.90922 54.02698 34110 ft 504 kts 241°
2026-04-10 16:28 67.86633 53.87958 34111 ft 505 kts 240°
2026-04-10 16:29 67.82325 53.73273 34125 ft 505 kts 240°
2026-04-10 16:29 67.77994 53.58591 34119 ft 506 kts 240°
2026-04-10 16:30 67.73647 53.43936 34121 ft 506 kts 240°
2026-04-10 16:30 67.69292 53.29349 34131 ft 508 kts 239°
2026-04-10 16:31 67.64930 53.14860 34124 ft 510 kts 238°
2026-04-10 16:31 67.59907 53.01448 34142 ft 520 kts 228°
2026-04-10 16:32 67.54484 52.88841 34137 ft 521 kts 227°
2026-04-10 16:32 67.49096 52.76239 34138 ft 520 kts 228°
2026-04-10 16:33 67.43725 52.63534 34146 ft 521 kts 228°
2026-04-10 16:33 67.38313 52.50972 34147 ft 521 kts 227°
2026-04-10 16:34 67.32914 52.38461 34150 ft 520 kts 227°
2026-04-10 16:34 67.27505 52.26009 34156 ft 520 kts 227°
2026-04-10 16:35 67.22090 52.13685 34153 ft 518 kts 227°
2026-04-10 16:35 67.16674 52.01437 34194 ft 517 kts 227°
2026-04-10 16:36 67.11280 51.89290 34201 ft 518 kts 226°
2026-04-10 16:36 67.05847 51.77124 34190 ft 519 kts 226°
2026-04-10 16:37 67.00396 51.64991 34193 ft 519 kts 226°
2026-04-10 16:37 66.94939 51.52921 34195 ft 518 kts 226°
2026-04-10 16:38 66.89502 51.40837 34204 ft 519 kts 226°
2026-04-10 16:38 66.84055 51.28781 34196 ft 519 kts 226°
2026-04-10 16:39 66.78623 51.16831 34219 ft 520 kts 226°
2026-04-10 16:39 66.73140 51.04858 34211 ft 520 kts 225°
2026-04-10 16:40 66.67654 50.92949 34236 ft 520 kts 225°
2026-04-10 16:40 66.62149 50.81082 34218 ft 521 kts 225°
2026-04-10 16:41 66.56625 50.69249 34255 ft 520 kts 225°
2026-04-10 16:41 66.51113 50.57492 34272 ft 520 kts 224°
2026-04-10 16:42 66.45592 50.45802 34279 ft 520 kts 224°
2026-04-10 16:42 66.40057 50.34133 34285 ft 520 kts 224°
2026-04-10 16:43 66.34538 50.22591 34291 ft 521 kts 223°
2026-04-10 16:43 66.28970 50.11011 34283 ft 522 kts 223°
2026-04-10 16:44 66.23388 49.99460 34283 ft 523 kts 223°
2026-04-10 16:44 66.17788 49.87947 34297 ft 523 kts 223°
2026-04-10 16:45 66.12175 49.76476 34289 ft 523 kts 223°
2026-04-10 16:45 66.06551 49.65052 34291 ft 523 kts 223°
2026-04-10 16:46 66.00926 49.53691 34303 ft 522 kts 223°
2026-04-10 16:46 65.95334 49.42453 34290 ft 522 kts 222°
2026-04-10 16:47 65.89701 49.31205 34315 ft 521 kts 221°
2026-04-10 16:47 65.84075 49.20033 34293 ft 522 kts 221°
2026-04-10 16:48 65.78431 49.08866 34307 ft 522 kts 221°
2026-04-10 16:48 65.72782 48.97703 34307 ft 523 kts 221°
2026-04-10 16:49 65.67128 48.86601 34300 ft 522 kts 221°
2026-04-10 16:49 65.61467 48.75550 34315 ft 523 kts 221°
2026-04-10 16:50 65.55811 48.64520 34313 ft 523 kts 221°
2026-04-10 16:50 65.50147 48.53517 34319 ft 523 kts 221°
2026-04-10 16:51 65.44476 48.42559 34311 ft 523 kts 220°
2026-04-10 16:51 65.38794 48.31651 34313 ft 522 kts 220°
2026-04-10 16:52 65.33111 48.20809 34313 ft 522 kts 220°
2026-04-10 16:52 65.27417 48.10005 34320 ft 523 kts 220°
2026-04-10 16:53 65.22679 48.01060 34329 ft 523 kts 220°